Regional Weather Roundup
Issued by NWS

Home | Current Version | Previous Version | Graphics & Text | Print | Product List | Glossary On
Versions: 1 2 3 4 5 6 7 8 9 10 11 12 13 14 15 16 17 18 19 20 21 22 23 24 25 26 27 28 29 30 31 32 33 34 35 36 37 38 39 40 41 42 43 44 45 46 47 48 49 50
143
ASUS43 KMPX 251501
RWRMN
WEATHER ROUNDUP FOR MINNESOTA
NATIONAL WEATHER SERVICE TWIN CITIES/CHANHASSEN MN
1000 AM CDT MON SEP 25 2017


NOTE: "FAIR" INDICATES FEW OR NO CLOUDS BELOW 12,000 FEET WITH NO
SIGNIFICANT WEATHER AND/OR OBSTRUCTIONS TO VISIBILITY. N/A MEANS
CURRENT SKY AND/OR WEATHER CONDITIONS ARE NOT AVAILABLE.

MNZ060>063-068>070-251600-
   Twin Cities Metro

CITY           SKY/WX    TMP DP  RH WIND       PRES   REMARKS
TWIN CITIES    CLOUDY    60  58  92 NW10      30.00S
ST PAUL        CLOUDY    60  58  92 NW10      30.00F
CRYSTAL        CLOUDY    58  54  86 NW9       30.00S
BLAINE         CLOUDY    59  59 100 NW7       30.01S
LAKEVILLE      CLOUDY    57  57 100 NW6       30.00S
EDEN PRAIRIE   CLOUDY    59  56  89 N10       29.99F
SOUTH ST PAUL  CLOUDY    61  60  97 N5        30.00S
LAKE ELMO      CLOUDY    61  59  94 NW6       30.01S
$$
MNZ001>005-007-008-013>017-022>024-027-028-251600-
   Northwest Minnesota

CITY           SKY/WX    TMP DP  RH WIND       PRES   REMARKS
BEMIDJI        CLOUDY    48  47  99 NW9       30.08R FOG
HALLOCK          N/A     48  46  93 N9        30.13F
ROSEAU         PTSUNNY   46  43  87 N13       30.10F
WARROAD        CLOUDY    46  43  87 NW12      30.10S
CROOKSTON      CLOUDY    48  46  93 N8        30.13R
FOSSTON        CLOUDY    46  45  93 N8        30.10F FOG
DETROIT LAKES  CLOUDY    48  46  93 N8        30.08F
MOORHEAD       CLOUDY    48  46  93 N12       30.10F FOG
PARK RAPIDS    CLOUDY    51  46  83 N13       30.06S
MAHNOMEN       CLOUDY    47  46  97 N12       30.09F FOG
$$
MNZ006-009>011-018-025>026-251600-
   North Central Minnesota

CITY           SKY/WX    TMP DP  RH WIND       PRES   REMARKS
BAUDETTE       CLOUDY    52  49  89 N13       30.08R
FLAG ISLAND    CLOUDY    48  46  93 N13       30.08S
INTL FALLS     CLOUDY    52  50  93 N9        30.06R
WASKISH        CLOUDY    50  48  93 NW6       30.08S
BIG FORK       CLOUDY    52  48  87 NW3       30.06S FOG
LONGVILLE      DRIZZLE   52  50  93 NW5       30.04F
GRAND RAPIDS   CLOUDY    50  48  93 N8        30.05F
CRANE LAKE     CLOUDY    52  50  93 CALM      30.05S FOG
ORR            CLOUDY    52  48  87 NW6       30.02F
WALKER         CLOUDY    49  47  94 NW7       30.06S
$$
MNZ012-019>021-037-251600-
   Northeast Minnesota

CITY           SKY/WX    TMP DP  RH WIND       PRES   REMARKS
DULUTH         LGT RAIN  52  51  97 NW10      30.01R
ELY            CLOUDY    52  50  93 NW6       30.03R
HIBBING        CLOUDY    50  48  93 NW9       30.03F
EVELETH        DRIZZLE   53  51  95 NW8       30.03F
DULUTH HARBOR  LGT RAIN  57  54  88 W9        30.02R
GRAND MARAIS     N/A     63  58  83 S5        29.95R
$$
MNZ029>031-032-039>041-046>048-054>057-064-251600-
   West Central Minnesota

CITY           SKY/WX    TMP DP  RH WIND       PRES   REMARKS
FERGUS FALLS   CLOUDY    52  52 100 N8        30.08F
WHEATON        CLOUDY    52  45  76 N15       30.08F
MORRIS         CLOUDY    52  48  87 N12G17    30.04F
ALEXANDRIA     CLOUDY    51  50  96 N12       30.05F
ELBOW LAKE     CLOUDY    50  48  91 N12       30.06F
WADENA         CLOUDY    50  48  93 N10       30.05S
GLENWOOD       RAIN      52  50  93 N6        30.06R
APPLETON       CLOUDY    52  48  87 N9        30.04S FOG
BENSON         LGT RAIN  54  50  87 NE8       30.06S
ORTONVILLE     CLOUDY    50  46  87 N15G22    30.06R
MADISON        CLOUDY    54  54 100 N13       30.06S
WILLMAR        LGT RAIN  54  52  94 N7        30.05F
$$
MNZ033>034-036-042>043-049>051-058-059-251600-
   Central Minnesota

CITY           SKY/WX    TMP DP  RH WIND       PRES   REMARKS
ST CLOUD       CLOUDY    53  52  96 N8        30.03F
SAUK CENTRE    LGT RAIN  51  49  93 N5        30.05R
PAYNESVILLE    LGT RAIN  53  51  94 N8        30.04F
AITKIN         LGT RAIN  50  48  93 S5        30.05R
PINE RIVER     CLOUDY    48  45  87 NW9       30.08R
BRAINERD       LGT RAIN  51  50  96 NW6       30.04R
STAPLES        DRIZZLE   48  48 100 N7        30.05S
LITTLE FALLS   DRIZZLE   50  46  87 NW5       30.05R
LITCHFIELD     CLOUDY    54  54 100 N7        30.03F
BUFFALO        LGT RAIN  54  52  92 NW6       30.03F
MAPLE LAKE     CLOUDY    55  54  97 N10       30.03F
HUTCHINSON     CLOUDY    55  54  95 N8        30.02F
$$
MNZ037-044-045-052-053-251600-
   East Central Minnesota

CITY           SKY/WX    TMP DP  RH WIND       PRES   REMARKS
PRINCETON      CLOUDY    55  54  94 NW7       30.03S
MORA           CLOUDY    54  50  87 N3        30.05R
RUSH CITY      CLOUDY    56  54  92 N6        30.03S
MOOSE LAKE     LGT RAIN  54  50  87 N5        30.01S
HINCKLEY       CLOUDY    55  54  94 N7        30.03R
CLOQUET        LGT RAIN  54  50  87 W6        30.02R
MCGREGOR       CLOUDY    52  50  93 N9        30.01F
$$
MNZ071>073-080-081-089-090-097-098-251600-
   Southwest Minnesota

CITY           SKY/WX    TMP DP  RH WIND       PRES   REMARKS
MONTEVIDEO     CLOUDY    52  52 100 NE8       30.05F
GRANITE FALLS  CLOUDY    53  51  94 N9        30.05F
CANBY          CLOUDY    52  49  92 N10       30.09R
MARSHALL       CLOUDY    51  49  92 N7        30.06S
REDWOOD FALLS  LGT RAIN  53  51  93 N6        30.02S
OLIVIA         CLOUDY    54  52  94 N8        30.02F
PIPESTONE      CLOUDY    52  48  87 N9G18     30.04R
WORTHINGTON    CLOUDY    51  50  96 N9        30.04R
JACKSON        CLOUDY    52  52 100 N8        30.02R
TRACY          DRIZZLE   52  51  98 N14       30.04S
SLAYTON        LGT RAIN  50  44  80 N16       30.01F
$$
MNZ065>067-074>077-082>085-091>093-251600-
   South Central Minnesota

CITY           SKY/WX    TMP DP  RH WIND       PRES   REMARKS
MANKATO        CLOUDY    57  55  93 N9        30.00F
NEW ULM        LGT RAIN  54  54 100 N7        30.01F
ST JAMES       LGT RAIN  54  54 100 NW6       30.02S
FAIRMONT       LGT RAIN  56  54  93 N9        30.00F
FARIBAULT      LGT RAIN  61  59  94 NW6       29.99F VSB 1/2
OWATONNA       CLOUDY    61  61 100 N8        29.99S
WASECA         CLOUDY    59  57  94 N5        30.01S
ALBERT LEA     CLOUDY    64  63  94 N5        29.99R
$$
MNZ078>079-086>088-094>096-251600-
   Southeast Minnesota

CITY           SKY/WX    TMP DP  RH WIND       PRES   REMARKS
ROCHESTER      CLOUDY    70  66  87 NE6       29.98F
RED WING       CLOUDY    70  63  78 NW5       29.96S
STANTON        CLOUDY    63  60  92 N8        29.98S FOG
DODGE CENTER   CLOUDY    64  63  94 NW6       29.99S FOG
WINONA         MOSUNNY   73  64  73 CALM      29.95F
AUSTIN         CLOUDY    64  63  94 N6        29.97F FOG
PRESTON        MOSUNNY   69  63  80 CALM      29.98F
$$
ABBREVIATIONS USED IN REMARKS
   TC - TEMPERATURES IN CELSIUS
  WCI - WIND CHILL INDEX
   HX - HEAT INDEX
  VSB - VISIBILITY
$$




USA.gov is the U.S. government's official web portal to all federal, state and local government web resources and services.